This demonstration page uses our WeatherBlox Daily Observations layout. Learn more.

Left ArrowRight Arrow

Hourly Observations for April 28, 2015

Temp ( °F °C ) Dew Point ( °F °C ) Humidity (%) Winds ( mph kmh ) Pressure ( in mb ) Visibility ( mi km ) Precip ( " mm )
12:15 am 00:15 Clear 41 5 32 0 70 70 ENE 7 11 30.12 1020 10 16.0934 N/A
12:36 am 00:36 Clear 41 5 32 0 70 70 ENE 8 13 30.12 1020 10 16.0934 N/A
12:56 am 00:56 Clear 39 4 30 -1 70 70 ENE 6 9 30.12 1020 10 16.0934 N/A
1:15 am 01:15 Clear 39 4 32 0 75 75 E 6 9 30.12 1020 10 16.0934 N/A
1:36 am 01:36 Clear 41 5 32 0 70 70 ENE 5 7 30.12 1020 10 16.0934 N/A
1:56 am 01:56 Clear 41 5 32 0 70 70 ENE 5 7 30.12 1020 10 16.0934 N/A
2:15 am 02:15 Clear 39 4 32 0 75 75 ENE 3 6 30.12 1020 10 16.0934 N/A
2:36 am 02:36 Clear 37 3 30 -1 75 75 Calm 30.15 1021 10 16.0934 N/A
2:56 am 02:56 Clear 37 3 37 3 100 100 Calm 30.15 1021 10 16.0934 N/A
3:16 am 03:16 Clear 37 3 37 3 100 100 Calm 30.15 1021 10 16.0934 N/A
3:36 am 03:36 Clear 39 4 37 3 93 93 Calm 30.12 1020 10 16.0934 N/A
3:56 am 03:56 Clear 37 3 37 3 100 100 NE 5 7 30.15 1021 10 16.0934 N/A
4:16 am 04:16 Clear 36 2 36 2 100 100 Calm 30.15 1021 10 16.0934 N/A
4:36 am 04:36 Clear 37 3 N/A N/A Calm 30.15 1021 10 16.0934 N/A
4:56 am 04:56 Clear 36 2 N/A N/A Calm 30.18 1022 10 16.0934 N/A
5:16 am 05:16 Clear 37 3 N/A N/A Calm 30.18 1022 10 16.0934 N/A
5:36 am 05:36 Clear 36 2 N/A N/A Calm 30.18 1022 10 16.0934 N/A
5:56 am 05:56 Clear 36 2 N/A N/A Calm 30.18 1022 10 16.0934 N/A
6:16 am 06:16 Clear 34 1 N/A N/A Calm 30.18 1022 10 16.0934 N/A
6:36 am 06:36 Clear 34 1 N/A N/A Calm 30.18 1022 10 16.0934 N/A
6:56 am 06:56 Sunny 34 1 N/A N/A Calm 30.18 1022 10 16.0934 N/A
7:16 am 07:16 Sunny 34 1 N/A N/A Calm 30.21 1023 10 16.0934 N/A
7:36 am 07:36 Sunny 34 1 N/A N/A Calm 30.21 1023 10 16.0934 N/A
7:56 am 07:56 Sunny 36 2 N/A N/A Calm 30.21 1023 7 11.26538 N/A
8:16 am 08:16 Sunny 41 5 N/A N/A N 3 6 30.18 1022 10 16.0934 N/A
8:36 am 08:36 Sunny 45 7 41 5 87 87 NNE 3 6 30.18 1022 10 16.0934 N/A
8:56 am 08:56 Sunny 46 8 32 0 57 57 N 3 6 30.18 1022 10 16.0934 N/A
9:16 am 09:16 Sunny 48 9 32 0 54 54 Calm 30.18 1022 10 16.0934 N/A
9:36 am 09:36 Sunny 50 10 30 -1 47 47 NNE 3 6 30.18 1022 10 16.0934 N/A
9:56 am 09:56 Sunny 52 11 28 -2 41 41 NE 5 7 30.18 1022 10 16.0934 N/A
10:16 am 10:16 Sunny 52 11 28 -2 41 41 ENE 6 9 30.18 1022 10 16.0934 N/A
10:36 am 10:36 Sunny 52 11 28 -2 41 41 NE 3 6 30.18 1022 10 16.0934 N/A
10:56 am 10:56 Sunny 54 12 28 -2 38 38 E 8 13 30.18 1022 10 16.0934 N/A
11:16 am 11:16 Sunny 54 12 28 -2 38 38 NE 10 17 30.18 1022 10 16.0934 N/A
11:36 am 11:36 Sunny 55 13 28 -2 36 36 E 8 13 30.15 1021 10 16.0934 N/A
11:55 am 11:55 Sunny 55 13 28 -2 36 36 E 5 7 30.12 1020 10 16.0934 N/A
12:16 pm 12:16 Sunny 55 13 27 -3 33 33 ENE 6 9 30.12 1020 10 16.0934 N/A
12:36 pm 12:36 Sunny 57 14 27 -3 31 31 NNE 5 7 30.12 1020 10 16.0934 N/A
12:56 pm 12:56 Sunny 57 14 25 -4 29 29 NE 6 9 30.12 1020 10 16.0934 N/A
1:16 pm 13:16 Sunny 57 14 23 -5 27 27 NE 3 6 30.09 1019 10 16.0934 N/A
1:36 pm 13:36 Sunny 57 14 23 -5 27 27 N 7 11 30.09 1019 10 16.0934 N/A
1:56 pm 13:56 Sunny 57 14 23 -5 27 27 ENE 6 9 30.09 1019 10 16.0934 N/A
2:16 pm 14:16 Sunny 59 15 27 -3 29 29 ENE 8 13 30.06 1018 10 16.0934 N/A
2:36 pm 14:36 Sunny 59 15 25 -4 27 27 NNE 9 15 30.06 1018 10 16.0934 N/A
2:55 pm 14:55 Sunny 59 15 25 -4 27 27 N 7 11 30.06 1018 10 16.0934 N/A
3:16 pm 15:16 Sunny 61 16 23 -5 23 23 NNE 10 17 30.03 1017 10 16.0934 N/A
3:35 pm 15:35 Sunny 61 16 23 -5 23 23 E 7 11 30.03 1017 10 16.0934 N/A
3:56 pm 15:56 Sunny 61 16 25 -4 25 25 ENE 6 9 30.03 1017 10 16.0934 N/A
4:16 pm 16:16 Sunny 61 16 21 -6 22 22 NNE 5 7 30 1016 10 16.0934 N/A
4:36 pm 16:36 Sunny 63 17 21 -6 20 20 N 9 15 30 1016 10 16.0934 N/A
4:56 pm 16:56 Sunny 63 17 19 -7 19 19 N 7 11 30 1016 10 16.0934 N/A
5:16 pm 17:16 Sunny 63 17 19 -7 19 19 N 7 11 30 1016 10 16.0934 N/A
5:36 pm 17:36 Sunny 63 17 23 -5 22 22 NNE 7 11 30 1016 10 16.0934 N/A
5:56 pm 17:56 Sunny 61 16 21 -6 22 22 NE 3 6 30 1016 10 16.0934 N/A
6:16 pm 18:16 Sunny 61 16 21 -6 22 22 NNE 3 6 30 1016 10 16.0934 N/A
6:35 pm 18:35 Sunny 61 16 21 -6 22 22 NNE 5 7 30 1016 10 16.0934 N/A
6:56 pm 18:56 Sunny 61 16 23 -5 23 23 NE 6 9 30 1016 10 16.0934 N/A
7:16 pm 19:16 Sunny 61 16 19 -7 20 20 Calm 30 1016 10 16.0934 N/A
7:36 pm 19:36 Sunny 59 15 21 -6 23 23 Calm 30 1016 10 16.0934 N/A
7:56 pm 19:56 Sunny 59 15 28 -2 31 31 N 5 7 30 1016 10 16.0934 N/A
8:16 pm 20:16 Partly Cloudy 57 14 28 -2 33 33 N 8 13 30 1016 10 16.0934 N/A
8:36 pm 20:36 Clear 55 13 32 0 41 41 N 6 9 30 1016 10 16.0934 N/A
8:56 pm 20:56 Clear 54 12 32 0 44 44 N 5 7 30 1016 10 16.0934 N/A
9:16 pm 21:16 Clear 52 11 32 0 47 47 N 6 9 30.03 1017 10 16.0934 N/A
9:36 pm 21:36 Clear 50 10 32 0 50 50 N 5 7 30.03 1017 10 16.0934 N/A
9:56 pm 21:56 Clear 50 10 32 0 50 50 N 3 6 30.03 1017 10 16.0934 N/A
10:16 pm 22:16 Clear 48 9 34 1 58 58 Calm 30.03 1017 10 16.0934 N/A
10:36 pm 22:36 Clear 48 9 34 1 58 58 Calm 30.03 1017 10 16.0934 N/A
10:55 pm 22:55 Clear 48 9 32 0 54 54 NE 3 6 30.03 1017 10 16.0934 N/A
11:16 pm 23:16 Clear 46 8 32 0 57 57 NE 3 6 30 1016 10 16.0934 N/A
11:36 pm 23:36 Clear 48 9 32 0 54 54 NNE 3 6 30 1016 10 16.0934 N/A
11:56 pm 23:56 Clear 45 7 34 1 66 66 NE 3 6 30 1016 10 16.0934 N/A

Powered by AerisWeather